Grand Island, NE

1:04 AM CDT on July 26, 2017 (GMT -0500)
Central Nebraska Regional

Weather History for KGRI - October, 2012

Change the Weather History Date:

Monday, October 1, 2012

  Actual Average Record
Temperature  
Mean Temperature 58 °F 58 °F  
Max Temperature 72 °F 71 °F 92 °F (1963)
Min Temperature 43 °F 45 °F 28 °F (1985)
Degree Days  
Heating Degree Days 7 8  
Month to date heating degree days 7 8  
Since 1 July heating degree days 77 123  
Cooling Degree Days 0 1  
Month to date cooling degree days 0 1  
Year to date cooling degree days 1503 1024  
Growing Degree Days 9 (Base 50)    
Moisture  
Dew Point 42 °F    
Average Humidity 46    
Maximum Humidity 64    
Minimum Humidity 28    
Precipitation  
Precipitation 0.01 in 0.07 in 1.47 in (1907)
Month to date precipitation 0.01 0.07  
Year to date precipitation 8.59 23.07  
Snow  
Snow 0.00 in 0.00 in - ()
Month to date snowfall 0.0 0.0  
Since 1 July snowfall 0.0 0.1  
Since 1 September snowfall 0.0 0.1  
Snow Depth 0.00 in    
Sea Level Pressure  
Sea Level Pressure 30.03 in    
Wind  
Wind Speed 13 mph (NNW)    
Max Wind Speed 28 mph    
Max Gust Speed 33 mph    
Visibility 10 miles    
Events Rain    
T = Trace of Precipitation, MM = Missing Value Source: NWS Daily Summary

Daily Weather History Graph

Daily Weather History Graph

Search for Another Location

Airport or City:

Trip Planner

Search our weather history database for the weather conditions in past years. The results will help you decide how hot, cold, wet, or windy it might be!

Date:

Astronomy

Oct. 01, 2012 Rise Set
Actual Time 7:30 AM CDT 7:14 PM CDT
Civil Twilight 7:02 AM CDT 7:41 PM CDT
Nautical Twilight 6:31 AM CDT 8:13 PM CDT
Astronomical Twilight 5:58 AM CDT 8:45 PM CDT
Moon 7:50 PM CDT (10/1) 9:02 AM CDT (10/1)
Length of Visible Light 12h 38m
Length of Day
11h 43m
Full, 98% of the Moon is Illuminated
Oct 1
Full
Oct 8
Last Quarter
Oct 15
New
Oct 21
First Quarter
Oct 29
Full

Hourly Weather History & Observations

Time (CDT) Temp. Windchill Dew Point Humidity Pressure Visibility Wind Dir Wind Speed Gust Speed Precip Events Conditions
12:53 AM 55.0 °F - 36.0 °F 49% 29.94 in 10.0 mi West 4.6 mph - N/A   Partly Cloudy
1:53 AM 55.0 °F - 37.0 °F 51% 29.94 in 10.0 mi West 3.5 mph - N/A   Clear
2:53 AM 53.1 °F - 37.0 °F 55% 29.94 in 10.0 mi West 5.8 mph - N/A   Partly Cloudy
3:53 AM 53.1 °F - 37.9 °F 57% 29.93 in 10.0 mi Calm Calm - N/A   Clear
4:53 AM 54.0 °F - 39.9 °F 59% 29.93 in 10.0 mi WNW 4.6 mph - N/A   Scattered Clouds
5:53 AM 61.0 °F - 48.0 °F 62% 29.96 in 10.0 mi NNW 15.0 mph - N/A   Overcast
6:53 AM 57.9 °F - 54.0 °F 87% 30.00 in 7.0 mi North 24.2 mph 29.9 mph 0.00 in Rain Light Rain
7:53 AM 57.9 °F - 54.0 °F 87% 30.04 in 10.0 mi North 12.7 mph - 0.01 in   Overcast
8:53 AM 57.9 °F - 54.0 °F 87% 30.04 in 10.0 mi North 8.1 mph - 0.00 in Rain Light Rain
9:53 AM 59.0 °F - 51.1 °F 75% 30.06 in 10.0 mi North 21.9 mph 27.6 mph 0.00 in   Partly Cloudy
10:53 AM 61.0 °F - 48.9 °F 64% 30.09 in 10.0 mi North 18.4 mph 24.2 mph N/A   Mostly Cloudy
11:53 AM 66.9 °F - 48.0 °F 51% 30.08 in 10.0 mi North 24.2 mph 31.1 mph N/A   Partly Cloudy
12:53 PM 64.0 °F - 46.9 °F 54% 30.09 in 10.0 mi North 23.0 mph 28.8 mph 0.00 in   Mostly Cloudy
1:53 PM 64.9 °F - 45.0 °F 48% 30.08 in 10.0 mi NNW 23.0 mph 29.9 mph N/A   Mostly Cloudy
2:53 PM 69.1 °F - 44.1 °F 40% 30.05 in 10.0 mi North 21.9 mph 27.6 mph N/A   Scattered Clouds
3:53 PM 71.1 °F - 42.1 °F 35% 30.04 in 10.0 mi North 18.4 mph 28.8 mph N/A   Mostly Cloudy
4:53 PM 70.0 °F - 41.0 °F 35% 30.04 in 10.0 mi NNW 17.3 mph 24.2 mph N/A   Partly Cloudy
5:53 PM 70.0 °F - 36.0 °F 29% 30.03 in 10.0 mi North 20.7 mph 28.8 mph N/A   Clear
6:53 PM 64.9 °F - 35.1 °F 33% 30.04 in 10.0 mi North 11.5 mph - N/A   Clear
7:53 PM 57.0 °F - 34.0 °F 42% 30.06 in 10.0 mi NNW 8.1 mph - N/A   Clear
8:53 PM 51.1 °F - 34.0 °F 52% 30.08 in 10.0 mi NW 8.1 mph - N/A   Clear
9:53 PM 46.9 °F - 33.1 °F 59% 30.09 in 10.0 mi NW 6.9 mph - N/A   Clear
10:53 PM 46.9 °F - 33.1 °F 59% 30.08 in 10.0 mi NW 8.1 mph - N/A   Clear
11:53 PM 45.0 °F 41.2 °F 32.0 °F 60% 30.07 in 10.0 mi NW 6.9 mph - N/A   Clear